Location: ????????
(60.5616°N, 46.8254°E)
Time: 08:50:07
(UTC+00:00)

COSMO-SKYMED 1 - Pass Details

Date: 18 February 2020
Orbit: 621 x 623 km, 97.9° (Epoch: 27 March)

Event Time Altitude Azimuth Distance (km) Brightness Sun altitude
Rises 15:56:43 0° 15° (NNE) 2,923 5.9 -16.3°
Reaches altitude 10° 15:58:56 10° 12° (NNE) 2,011 5.1 -16.6°
Maximum altitude 16:03:14 57° 294° (WNW) 739 3.2 -17.1°
Drops below altitude 10° 16:07:29 10° 216° (SW) 1,996 5.5 -17.6°
Sets 16:09:41 0° 213° (SSW) 2,899 6.3 -17.9°
